FW9604 Weather Reports


Display with metric or nautical units.
time (UTC)temp
F
wind
direction
speed
MPH
gust
MPH
rain 1hr
in
rain 24hr
in
rain mn
in
humidity
%
barometer
mb
20260507210030 51 0 0.0 2.0 0.00 0.00 0.00 76 1014.5
20260507204530 51 0 0.0 2.0 0.00 0.00 0.00 76 1014.2
20260507203038 52 0 1.0 4.0 0.00 0.00 0.00 75 1014.2
20260507201529 53 180 1.0 6.0 0.00 0.00 0.00 74 1013.9
20260507200028 53 180 1.0 5.0 0.00 0.00 0.00 73 1013.8
20260507194529 53 157 0.0 4.0 0.00 0.00 0.00 73 1013.7
20260507193030 53 169 1.0 4.0 0.00 0.00 0.00 72 1013.7
20260507191528 54 180 1.0 4.0 0.00 0.00 0.00 71 1013.7
20260507190028 54 0 0.0 5.0 0.00 0.00 0.00 71 1013.6
20260507184529 55 131 2.0 6.0 0.00 0.00 0.00 70 1013.6
20260507183030 55 0 0.0 6.0 0.00 0.00 0.00 69 1013.7
20260507181532 56 133 2.0 7.0 0.00 0.00 0.00 68 1013.5
20260507180034 55 0 1.0 7.0 0.00 0.00 0.00 70 1013.3
20260507174528 56 144 1.0 7.0 0.00 0.00 0.00 70 1013.3
20260507173032 56 142 3.0 8.0 0.00 0.00 0.00 69 1013.4
20260507171529 56 157 2.0 9.0 0.00 0.00 0.00 70 1013.3
20260507170030 56 196 2.0 10.0 0.00 0.00 0.00 70 1013.3
20260507164534 57 164 2.0 9.0 0.00 0.00 0.00 69 1013.4
20260507163030 57 0 2.0 8.0 0.00 0.00 0.00 68 1013.3
20260507161530 58 129 3.0 9.0 0.00 0.00 0.00 67 1013.3
20260507160028 58 117 1.0 9.0 0.00 0.00 0.00 68 1013.3
20260507154531 59 175 3.0 10.0 0.00 0.00 0.00 65 1013.4
20260507153027 58 219 3.0 13.0 0.00 0.00 0.00 64 1013.3
20260507151528 59 141 4.0 11.0 0.00 0.00 0.00 62 1013.3
20260507150031 60 183 3.0 14.0 0.00 0.00 0.00 62 1013.4
20260507144533 61 190 3.0 11.0 0.00 0.00 0.00 59 1013.4
20260507143035 61 168 3.0 10.0 0.00 0.00 0.00 61 1013.4
20260507141531 61 153 3.0 9.0 0.00 0.00 0.00 59 1013.6
20260507140032 60 172 4.0 9.0 0.00 0.00 0.00 62 1013.7
20260507134532 59 139 4.0 10.0 0.00 0.00 0.00 62 1013.7
20260507133028 59 174 4.0 11.0 0.00 0.00 0.00 59 1013.9
20260507131534 59 201 5.0 11.0 0.00 0.00 0.00 57 1014.0
20260507130029 59 172 5.0 11.0 0.00 0.00 0.00 60 1014.0
20260507124532 59 144 4.0 11.0 0.00 0.00 0.00 61 1014.0
20260507123029 60 209 2.0 13.0 0.00 0.00 0.00 61 1013.9
20260507121531 60 144 5.0 14.0 0.00 0.00 0.00 58 1013.8
20260507120033 56 141 4.0 11.0 0.00 0.00 0.00 71 1013.7
20260507114532 55 138 3.0 14.0 0.00 0.00 0.00 72 1013.7
20260507113031 56 63 6.0 15.0 0.00 0.00 0.00 67 1013.7
20260507111531 60 106 3.0 13.0 0.00 0.00 0.00 64 1013.6
20260507110031 58 72 5.0 14.0 0.00 0.00 0.00 63 1013.6
20260507104534 58 130 7.0 17.0 0.00 0.00 0.00 65 1013.6
20260507103033 58 64 6.0 13.0 0.00 0.00 0.00 62 1013.7
20260507101531 58 86 5.0 15.0 0.00 0.00 0.00 61 1013.6
20260507100034 56 101 5.0 15.0 0.00 0.00 0.00 62 1013.7
20260507094534 57 69 6.0 12.0 0.00 0.00 0.00 62 1013.5
20260507093034 56 115 7.0 14.0 0.00 0.00 0.00 63 1013.6
20260507091541 55 72 6.0 13.0 0.00 0.00 0.00 66 1013.4
20260507090037 56 101 4.0 15.0 0.00 0.00 0.00 72 1013.5
20260507084531 54 68 6.0 13.0 0.00 0.00 0.00 76 1013.4
20260507083032 55 84 4.0 15.0 0.00 0.00 0.00 77 1013.4
20260507081530 53 56 4.0 12.0 0.00 0.00 0.00 78 1013.5
20260507080031 53 121 4.0 12.0 0.00 0.00 0.00 78 1013.5
20260507074531 53 61 3.0 8.0 0.00 0.00 0.00 81 1013.4
20260507073031 52 69 3.0 8.0 0.00 0.00 0.00 80 1013.4
20260507071528 51 135 2.0 9.0 0.00 0.00 0.00 80 1013.3
20260507070031 51 68 3.0 10.0 0.00 0.00 0.00 80 1013.3
20260507064527 51 83 4.0 9.0 0.00 0.00 0.00 80 1013.1
20260507063030 50 68 2.0 6.0 0.00 0.00 0.00 80 1013.1
20260507061531 50 126 5.0 8.0 0.00 0.00 0.00 80 1013.2
20260507060030 50 68 2.0 9.0 0.00 0.00 0.00 80 1013.3
20260507054535 50 82 1.0 4.0 0.00 0.00 0.00 81 1013.1
20260507053030 50 84 2.0 8.0 0.00 0.00 0.00 81 1013.1
20260507051531 50 113 0.0 4.0 0.00 0.00 0.00 81 1013.2
20260507050029 50 96 2.0 7.0 0.00 0.00 0.00 81 1013.2
20260507044530 50 94 2.0 6.0 0.00 0.00 0.00 81 1013.1
20260507043027 50 134 2.0 8.0 0.00 0.00 0.00 81 1013.0
20260507041528 49 71 2.0 4.0 0.00 0.00 0.00 82 1013.1
20260507040033 49 214 1.0 4.0 0.00 0.00 0.00 81 1013.1
20260507034530 48 0 0.0 2.0 0.00 0.00 0.00 80 1013.1
20260507033030 47 0 0.0 2.0 0.00 0.00 0.00 81 1013.2
20260507031530 47 0 0.0 1.0 0.00 0.00 0.00 82 1013.1
20260507030031 47 0 0.0 1.0 0.00 0.00 0.00 82 1013.2
20260507024528 47 186 0.0 2.0 0.00 0.00 0.00 83 1013.1
20260507023030 47 186 0.0 2.0 0.00 0.00 0.00 83 1013.2
20260507021530 47 0 0.0 0.0 0.00 0.00 0.00 84 1013.4
20260507020036 47 0 0.0 0.0 0.00 0.00 0.00 84 1013.4
20260507014531 47 0 0.0 0.0 0.00 0.00 0.00 84 1013.4
20260507013042 47 0 0.0 0.0 0.00 0.00 0.00 84 1013.5
20260507011532 47 0 0.0 0.0 0.00 0.00 0.00 84 1013.5
20260507010035 47 0 0.0 0.0 0.00 0.00 0.00 84 1013.8
20260507004529 46 0 0.0 0.0 0.00 0.00 0.00 84 1013.7
20260507003038 46 0 0.0 0.0 0.00 0.00 0.00 83 1013.9
20260507001533 46 0 0.0 0.0 0.00 0.00 0.00 83 1013.9
20260507000033 46 0 0.0 0.0 0.00 0.00 0.00 83 1013.9
20260506234528 46 0 0.0 0.0 0.00 0.00 0.00 83 1013.9
20260506233031 46 0 0.0 0.0 0.00 0.00 0.00 83 1013.9
20260506231528 46 0 0.0 0.0 0.00 0.00 0.00 83 1014.0
20260506230033 45 0 0.0 0.0 0.00 0.00 0.00 83 1014.1
20260506224530 46 0 0.0 0.0 0.00 0.00 0.00 83 1013.9
20260506223041 46 0 0.0 0.0 0.00 0.00 0.00 83 1014.1
20260506221528 46 0 0.0 0.0 0.00 0.00 0.00 83 1014.0
20260506220030 46 186 0.0 2.0 0.00 0.00 0.00 83 1013.9
20260506214538 46 0 0.0 2.0 0.00 0.00 0.00 83 1013.8
20260506213029 47 0 0.0 2.0 0.00 0.00 0.00 83 1013.8
20260506211529 47 294 0.0 2.0 0.00 0.00 0.00 82 1013.8